Regional Weather Roundup
Issued by NWS

Home | Current Version | Previous Version | Graphics & Text | Print | Product List | Glossary On
Versions: 1 2 3 4 5 6 7 8 9 10 11 12 13 14 15 16 17 18 19 20 21 22 23 24 25 26 27 28 29 30 31 32 33 34 35 36 37 38 39 40 41 42 43 44 45 46 47 48 49 50
000
ASUS45 KBOI 241810
RWRID

IDAHO REGIONAL WEATHER ROUNDUP
NATIONAL WEATHER SERVICE BOISE ID
1200 PM MDT SAT JUN 24 2017

NOTE: "FAIR" INDICATES FEW OR NO CLOUDS BELOW 12000 FEET
WITH NO SIGNIFICANT WEATHER AND/OR OBSTRUCTIONS TO VISIBILITY

IDZ012-014-241900-
SOUTHWEST IDAHO


CITY           SKY/WX    TMP DP  RH WIND       PRES   REMARKS
BOISE          SUNNY     76  42  29 N6        30.20S
CALDWELL       SUNNY     78  42  27 NW7       30.19S
MOUNTAIN HOME  SUNNY     79  37  22 N7        30.19F
$$

IDZ016-017-241900-
SOUTHCENTRAL IDAHO


CITY           SKY/WX    TMP DP  RH WIND       PRES   REMARKS
BURLEY         SUNNY     73  38  27 W7        30.24S
JEROME         SUNNY     72  36  26 SW6       30.24S
TWIN FALLS     SUNNY     77  41  27 W12       30.24S
$$

IDZ019>023-241900-
SOUTHEAST IDAHO


CITY           SKY/WX    TMP DP  RH WIND       PRES   REMARKS
IDAHO FALLS    SUNNY     71  44  37 NW3       30.28F
POCATELLO      SUNNY     73  35  25 VRB6      30.27F
REXBURG        SUNNY     69  39  33 VRB3      30.28F
$$

IDZ006-010-011-018-031-032-241900-
CENTRAL IDAHO MOUNTAINS


CITY           SKY/WX    TMP DP  RH WIND       PRES   REMARKS
MCCALL         SUNNY     70  29  21 VRB6      30.27S
HAILEY         SUNNY     72  46  40 SE7       30.30S
STANLEY          N/A     70  37  29 VRB5      30.35S
SALMON         SUNNY     68  37  32 NW5       30.26S
CHALLIS        SUNNY     71  35  26 CALM      30.28F
$$

IDZ002-004-006-007-026-241900-
NORTHERN IDAHO


CITY           SKY/WX    TMP DP  RH WIND       PRES   REMARKS
LEWISTON       SUNNY     76  41  28 CALM      30.21F
LOWELL           N/A     73  43  33 CALM      30.19F
COEUR D`ALENE  SUNNY     75  45  34 NE8       30.25S
MULLAN PASS    SUNNY     63  33  32 VRB5      30.38R
$$



USA.gov is the U.S. government's official web portal to all federal, state and local government web resources and services.